Wind_Speed
22 20 18 16 16 16 16 15 12 9 8 9 10 11 13 15 16 15 14 15 15 14 12 12 11 9 8 8 9 9 9 10 10 10 10 9 8 9 10 11 12 11 11 12
23 20 18 19 19 19 18 16 14 12 10 10 11 12 14 17 17 16 15 15 15 14 13 13 11 9 9 10 10 9 10 10 11 11 11 10 9 9 11 11 12 12 12 12
24 21 22 22 21 21 20 18 16 14 13 14 14 15 15 17 19 18 16 15 15 13 13 13 11 10 10 10 10 10 10 11 12 12 12 11 10 10 11 13 13 13 13 14
25 24 25 24 22 21 20 19 19 18 17 17 17 17 16 18 20 20 18 16 15 13 13 14 12 11 11 11 11 11 11 13 13 13 12 12 11 12 12 12 13 13 13 14
25 25 25 24 22 21 20 21 21 21 20 18 18 18 16 18 18 18 17 16 15 14 13 14 13 11 11 11 12 13 13 14 14 13 13 13 12 11 11 11 12 12 12 13
26 26 26 24 22 22 22 22 23 23 22 21 18 20 17 17 17 16 16 15 15 14 13 14 12 11 11 12 13 13 14 14 14 13 13 12 11 10 10 10 11 11 12 13
27 27 26 25 25 24 24 23 23 23 23 20 20 21 17 16 17 17 16 15 14 13 14 13 12 12 13 13 14 14 15 15 15 13 12 12 12 11 9 9 10 11 12 13
27 26 25 25 24 23 23 23 22 22 20 19 20 21 17 17 18 16 16 15 14 14 14 13 13 13 14 14 14 14 14 14 14 14 13 12 11 11 10 10 10 10 11 12
26 25 24 24 23 23 23 23 21 22 21 19 18 18 18 18 17 16 15 14 13 13 13 14 13 13 13 13 14 14 13 13 13 13 12 11 10 9 10 10 10 11 12 12
26 25 24 23 24 24 24 23 23 23 22 21 19 18 16 15 15 15 14 13 13 12 12 12 11 12 12 13 13 13 12 12 12 11 10 9 8 8 9 9 9 10 12 13
26 26 25 26 26 23 24 25 24 24 24 22 20 18 16 15 16 16 14 13 13 12 12 12 11 11 12 12 12 11 10 10 10 9 9 8 8 9 9 9 9 10 11 13
27 27 27 27 24 23 23 24 24 24 23 22 21 19 17 17 17 16 16 15 14 13 13 12 11 10 11 12 11 10 9 9 9 9 8 8 8 8 8 9 9 10 11 12
28 29 29 29 28 26 26 24 25 24 24 25 24 20 19 18 18 18 18 17 15 13 12 12 11 11 11 11 10 10 10 9 9 9 8 8 9 7 8 9 9 9 10 10
29 31 31 30 27 25 25 25 25 26 27 26 25 23 21 20 19 18 17 17 15 14 14 13 12 12 12 11 11 11 10 9 9 8 8 8 8 8 8 9 10 10 10 11
31 32 32 30 28 27 26 25 26 28 28 26 24 25 23 21 20 19 17 17 17 16 15 15 15 14 12 11 11 10 10 9 8 8 8 8 9 8 9 9 9 10 10 11
34 34 33 32 30 30 30 28 27 27 27 27 25 24 23 23 21 20 18 19 17 15 15 16 16 13 13 13 10 9 9 9 8 8 8 9 9 9 9 10 11 11 11 11
36 36 35 34 33 32 33 31 30 28 28 27 26 24 23 23 21 21 20 19 18 16 16 16 14 14 14 13 11 10 10 9 9 8 9 9 10 10 11 11 11 11 11 11
38 38 36 35 35 36 32 30 29 28 28 28 26 25 25 23 22 22 22 21 20 17 16 15 14 14 14 13 11 11 11 10 10 10 10 10 10 11 11 11 11 11 11 10
40 39 37 37 37 37 34 31 31 30 30 29 29 28 26 25 25 24 23 22 20 19 16 15 14 14 13 12 12 12 12 11 12 11 11 11 11 11 12 12 12 12 11 11
40 40 39 38 38 39 35 33 32 31 31 29 29 28 27 25 25 25 24 23 20 18 17 16 15 13 13 13 13 13 13 12 12 12 12 12 12 12 12 12 13 13 12 12
40 39 39 38 38 38 35 34 33 34 31 29 29 28 27 26 25 24 23 22 20 18 16 14 14 13 13 13 13 13 13 13 13 13 13 13 13 13 14 14 14 14 14 14
40 39 39 39 39 38 35 34 35 34 31 30 28 27 26 26 25 24 23 21 18 16 15 15 14 13 13 13 14 14 14 14 14 14 14 14 14 14 15 15 15 15 15 15
40 41 40 40 39 37 35 35 35 34 33 31 29 26 26 26 25 24 23 22 19 17 17 16 15 15 15 15 16 15 15 15 15 15 16 16 15 15 15 15 15 15 15 16
39 38 38 38 38 36 34 34 34 34 32 31 30 28 27 25 24 24 25 23 19 17 17 16 16 16 16 17 17 17 17 17 17 16 17 16 16 16 17 17 16 16 17 17
39 38 37 36 35 35 34 34 34 34 33 31 31 30 28 26 23 23 22 22 20 18 17 17 17 17 18 18 17 17 17 17 17 17 17 18 18 18 18 18 18 18 17 18
39 38 37 37 35 34 34 34 33 32 33 32 31 30 27 25 24 23 22 20 20 20 19 19 19 19 18 19 19 18 18 18 18 18 18 18 18 18 18 18 17 17 18 19
Wind_Direction
229 228 226 225 222 221 222 220 216 218 233 255 269 277 286 291 294 300 309 316 318 316 315 322 318 316 318 318 319 318 321 321 319 318 317 308 294 265 254 249 246 243 241 243
229 228 225 225 223 223 225 223 221 224 229 249 266 273 281 285 289 294 301 311 315 311 317 319 313 307 311 313 315 316 317 316 315 315 312 306 292 276 258 251 246 245 243 244
229 226 227 227 225 226 227 226 222 223 225 241 256 263 269 274 280 284 290 303 307 311 312 315 316 311 308 307 310 313 314 313 312 310 307 301 289 284 270 258 251 251 247 245
225 223 226 227 226 226 227 224 223 225 229 239 252 259 260 266 272 278 285 295 299 305 303 307 310 309 307 305 305 309 308 308 307 303 301 296 290 281 271 261 253 252 253 245
226 225 227 229 227 227 224 223 225 229 234 239 248 257 260 262 270 275 284 292 296 301 300 302 303 303 303 306 307 307 307 307 306 300 297 294 287 276 263 257 253 250 250 243
224 223 225 224 226 226 224 225 228 232 238 240 245 255 260 262 269 274 283 292 294 296 293 297 302 302 306 310 310 309 308 308 307 303 294 292 284 274 262 255 252 250 252 247
225 225 224 222 223 224 224 227 232 236 240 241 243 251 259 260 266 273 282 290 287 293 292 298 305 303 304 307 308 308 307 308 307 304 301 294 285 274 262 258 257 255 254 252
226 224 225 226 227 228 228 232 236 240 242 241 242 249 256 258 262 268 277 279 282 295 298 297 302 302 299 301 302 305 307 309 307 305 303 298 289 280 266 259 259 258 255 252
225 221 220 225 228 228 228 232 236 241 242 242 242 247 253 263 264 272 277 277 285 296 297 299 300 300 299 299 300 302 304 307 307 306 306 296 291 280 271 264 259 257 253 254
222 219 216 219 222 225 227 231 234 237 240 243 243 245 256 265 269 274 279 283 285 294 295 299 301 303 302 300 299 300 302 305 307 307 308 301 286 279 277 271 264 258 257 258
218 218 213 216 219 222 225 229 233 236 239 243 244 246 257 266 266 269 282 295 301 301 302 302 301 301 303 303 304 304 302 305 307 307 310 306 292 275 271 270 269 265 260 261
215 217 216 217 218 220 225 228 231 234 237 240 244 245 253 261 268 273 281 293 302 304 303 302 304 305 305 308 307 304 300 302 307 307 308 311 303 278 269 274 278 275 269 265
214 218 217 216 218 220 224 226 230 234 236 238 242 246 253 258 270 278 283 287 294 298 295 298 301 300 301 308 305 305 302 303 307 304 303 308 302 282 272 277 280 285 281 275
215 220 222 222 221 225 228 228 230 233 236 239 242 247 251 259 266 271 279 284 290 295 293 292 294 293 293 302 303 298 300 307 311 308 309 308 305 289 285 293 287 289 285 279
215 220 221 221 219 222 227 229 231 234 236 239 243 246 246 254 262 269 275 284 290 291 286 287 286 287 290 294 301 296 293 302 303 304 309 310 309 300 296 297 291 289 285 279
215 219 221 221 222 223 225 227 230 234 236 239 241 243 247 253 260 267 274 284 285 283 283 286 286 286 294 295 295 291 298 303 304 306 307 310 309 303 298 298 296 293 289 284
216 219 222 224 224 226 227 229 231 233 235 236 239 241 247 253 262 268 273 279 281 279 280 284 283 287 291 294 296 297 299 308 310 309 307 308 307 303 301 298 295 292 290 286
219 221 223 224 224 227 228 229 231 232 232 235 238 241 247 253 259 265 270 275 276 274 274 276 279 281 285 290 296 295 297 300 301 301 302 306 306 303 304 305 300 295 295 291
222 223 225 226 226 229 228 228 230 232 232 234 236 239 244 251 255 262 269 273 273 273 270 271 272 278 282 286 289 289 293 296 296 297 298 300 300 302 306 306 305 301 299 296
224 225 227 227 229 230 230 230 233 234 236 236 237 238 242 250 256 262 269 275 277 273 265 265 270 276 280 284 285 286 288 291 292 294 294 294 295 297 301 304 306 304 303 302
224 225 226 227 230 232 231 230 232 234 238 237 237 239 245 250 255 262 266 272 277 271 263 263 269 269 276 281 285 287 284 286 290 292 292 291 292 293 296 298 301 301 301 299
221 224 225 226 230 231 231 230 231 235 238 239 240 242 245 248 251 258 263 268 269 265 261 265 271 275 278 280 283 285 284 284 286 288 290 290 291 291 292 295 297 297 297 297
223 224 225 228 231 231 231 231 232 235 238 240 241 243 246 250 252 255 260 263 264 261 264 267 269 273 276 280 282 283 283 284 284 285 286 286 287 289 292 294 295 295 294 294
223 223 224 227 230 229 228 228 230 233 236 238 241 244 245 249 252 255 257 257 257 261 261 265 269 271 274 278 282 282 283 282 282 285 285 285 286 288 291 293 293 293 292 292
223 223 225 226 228 227 227 228 229 233 235 237 238 243 247 248 251 253 255 257 259 261 262 265 268 270 273 277 280 282 282 281 282 284 286 288 289 290 290 291 292 290 289 290
224 225 226 229 229 230 229 229 231 233 236 236 236 241 240 244 248 251 254 255 257 258 260 262 265 269 273 277 280 282 282 281 280 282 285 287 287 287 289 289 290 289 289 291
Height
5885 5889 5892 5894 5896 5898 5899 5899 5900 5901 5901 5902 5902 5903 5903 5902 5902 5902 5902 5902 5902 5901 5900 5899 5898 5896 5896 5895 5894 5893 5892 5890 5889 5888 5887 5886 5886 5886 5886 5886 5887 5888 5888 5889
5881 5885 5888 5889 5891 5893 5895 5896 5898 5899 5899 5900 5900 5901 5901 5900 5899 5900 5900 5900 5900 5899 5898 5897 5896 5895 5894 5893 5892 5890 5889 5888 5887 5886 5885 5884 5883 5883 5883 5883 5884 5884 5885 5886
5877 5882 5883 5885 5887 5889 5892 5894 5895 5896 5896 5897 5898 5899 5899 5899 5898 5898 5898 5898 5897 5896 5896 5895 5895 5893 5891 5890 5890 5888 5887 5886 5885 5883 5882 5881 5880 5879 5879 5880 5880 5880 5881 5883
5871 5875 5877 5880 5882 5885 5888 5891 5892 5892 5893 5894 5896 5896 5897 5896 5895 5895 5895 5895 5894 5894 5894 5893 5892 5891 5890 5888 5887 5886 5885 5883 5882 5880 5879 5878 5877 5876 5876 5875 5876 5877 5878 5878
5867 5870 5872 5875 5879 5881 5884 5887 5888 5889 5890 5891 5892 5892 5894 5893 5892 5892 5892 5892 5892 5892 5891 5890 5889 5888 5887 5886 5885 5883 5882 5880 5878 5876 5875 5874 5873 5872 5872 5872 5873 5874 5874 5875
5861 5864 5866 5871 5875 5877 5880 5882 5884 5885 5886 5888 5889 5888 5890 5889 5889 5890 5890 5890 5889 5889 5889 5887 5885 5884 5884 5883 5882 5880 5879 5877 5876 5873 5872 5870 5870 5870 5869 5869 5870 5870 5871 5872
5855 5858 5861 5865 5868 5872 5874 5877 5879 5880 5882 5884 5885 5884 5886 5886 5886 5886 5887 5886 5886 5886 5886 5884 5883 5882 5882 5880 5879 5878 5876 5874 5872 5870 5869 5868 5867 5867 5867 5867 5867 5868 5868 5869
5849 5854 5857 5861 5864 5867 5870 5873 5875 5877 5878 5880 5881 5880 5883 5882 5882 5883 5883 5883 5882 5883 5882 5881 5880 5879 5879 5877 5876 5874 5873 5871 5869 5868 5866 5865 5864 5864 5864 5864 5864 5865 5865 5866
5844 5849 5853 5856 5860 5863 5865 5867 5871 5872 5873 5875 5876 5877 5878 5878 5878 5878 5878 5879 5879 5879 5879 5878 5878 5877 5876 5874 5873 5871 5869 5868 5866 5865 5863 5862 5861 5861 5861 5861 5861 5861 5861 5862
5839 5843 5847 5851 5854 5857 5861 5863 5865 5867 5868 5870 5872 5873 5874 5874 5874 5875 5875 5876 5876 5875 5876 5875 5874 5873 5872 5871 5870 5868 5866 5864 5863 5861 5860 5859 5858 5858 5858 5858 5858 5858 5858 5858
5833 5838 5842 5845 5848 5852 5856 5858 5860 5862 5864 5866 5867 5871 5870 5870 5870 5871 5872 5872 5872 5872 5872 5872 5871 5870 5869 5867 5866 5864 5863 5861 5860 5859 5858 5857 5856 5856 5855 5856 5855 5855 5855 5855
5828 5832 5836 5840 5844 5847 5850 5853 5855 5858 5860 5861 5863 5868 5867 5867 5867 5867 5868 5869 5870 5869 5869 5868 5868 5867 5866 5865 5863 5862 5860 5859 5858 5857 5856 5855 5854 5853 5853 5853 5853 5852 5851 5851
5822 5826 5831 5835 5839 5842 5844 5847 5850 5853 5855 5856 5858 5864 5863 5863 5863 5864 5864 5865 5866 5866 5866 5866 5865 5864 5864 5863 5861 5860 5858 5856 5855 5855 5854 5853 5852 5851 5851 5850 5850 5849 5848 5848
5817 5821 5826 5830 5834 5838 5840 5843 5846 5848 5849 5852 5855 5858 5859 5859 5860 5861 5862 5862 5862 5863 5863 5863 5862 5861 5860 5860 5859 5858 5857 5855 5854 5853 5852 5851 5850 5849 5848 5848 5846 5846 5845 5845
5811 5815 5820 5825 5829 5832 5835 5838 5840 5842 5845 5848 5851 5853 5855 5856 5857 5858 5858 5859 5860 5859 5860 5859 5859 5858 5857 5856 5855 5854 5854 5852 5851 5851 5850 5849 5848 5847 5846 5845 5844 5843 5842 5842
5806 5810 5815 5819 5823 5826 5829 5832 5835 5837 5840 5843 5845 5848 5850 5851 5853 5854 5855 5856 5856 5856 5856 5856 5855 5855 5854 5853 5851 5851 5851 5850 5849 5848 5848 5847 5846 5845 5844 5843 5842 5840 5839 5838
5800 5805 5809 5814 5818 5821 5824 5827 5830 5833 5835 5838 5840 5844 5845 5846 5848 5850 5851 5852 5852 5852 5852 5852 5851 5851 5851 5849 5848 5848 5847 5847 5847 5847 5846 5845 5844 5843 5841 5840 5839 5837 5836 5835
5795 5799 5804 5808 5813 5814 5821 5823 5825 5828 5831 5833 5835 5838 5841 5843 5845 5845 5846 5846 5847 5848 5848 5848 5847 5848 5848 5847 5846 5846 5846 5845 5844 5844 5843 5842 5841 5840 5839 5837 5835 5834 5833 5832
5789 5794 5798 5802 5805 5808 5814 5817 5820 5823 5825 5828 5830 5833 5836 5838 5840 5841 5841 5841 5842 5842 5843 5843 5843 5844 5844 5843 5843 5843 5842 5842 5841 5840 5839 5839 5838 5837 5836 5834 5833 5831 5830 5829
5782 5787 5791 5795 5798 5802 5809 5812 5814 5818 5819 5823 5825 5828 5831 5833 5835 5837 5838 5838 5838 5837 5837 5838 5839 5839 5839 5839 5840 5839 5839 5838 5838 5837 5836 5835 5835 5834 5833 5831 5830 5829 5827 5826
5775 5779 5783 5788 5791 5796 5802 5806 5809 5812 5815 5818 5820 5823 5825 5828 5831 5832 5832 5833 5833 5833 5832 5833 5834 5834 5835 5835 5836 5835 5834 5834 5834 5833 5832 5832 5831 5830 5829 5828 5827 5825 5824 5823
5768 5773 5777 5781 5785 5791 5795 5799 5803 5805 5809 5811 5814 5817 5820 5822 5824 5826 5826 5827 5828 5828 5829 5829 5830 5831 5831 5831 5831 5831 5831 5830 5830 5829 5828 5828 5827 5826 5825 5824 5823 5822 5820 5819
5761 5766 5770 5775 5780 5785 5789 5793 5796 5799 5803 5806 5808 5811 5814 5816 5818 5819 5821 5822 5823 5823 5824 5825 5826 5827 5827 5827 5827 5826 5826 5825 5825 5825 5824 5823 5822 5822 5821 5820 5819 5818 5816 5815
5754 5759 5763 5768 5772 5777 5782 5785 5789 5793 5797 5800 5803 5805 5808 5810 5812 5814 5816 5817 5817 5817 5819 5820 5821 5822 5822 5822 5822 5822 5821 5821 5820 5820 5819 5818 5818 5817 5816 5815 5814 5813 5811 5810
5747 5752 5756 5761 5765 5770 5775 5779 5783 5787 5790 5793 5795 5798 5801 5804 5806 5808 5810 5811 5812 5813 5814 5815 5816 5817 5817 5817 5817 5817 5816 5816 5815 5815 5814 5814 5813 5812 5811 5810 5809 5807 5806 5805
5740 5745 5750 5754 5759 5764 5769 5773 5776 5780 5783 5785 5789 5792 5794 5797 5800 5802 5804 5805 5806 5807 5808 5809 5810 5811 5811 5812 5812 5811 5811 5810 5810 5810 5809 5808 5807 5806 5805 5804 5803 5802 5801 5800